Погода в Слободчиках

Россия / Омская область     57°30′06″N   70°56′02″E
темп.,
°C
ветер,
м/с
пор.,
м/с
влажн.,
%
обл.,
%
осадки,
мм/ч
давл.,
гПа
погр.,
м
6 марта, сб
сб600:00−5ююз399146 0.0 1000334
03:00−5ю2695100 0.0 997189
06:00−4всв1298100 1.4 99676
09:00−4зсз4996100 1.6 995512
12:00−5з61191100 2.3 998820
15:00−6з61087100 0.2 1001884
18:00−8зюз51183100 0.3 10041125
21:00−10зюз4119099 0.1 1005478
7 марта, вс
вс700:00−11юз4119299 0.2 1006364
03:00−12юз3109491 0.1 1007342
06:00−11зюз399495 0.2 1009401
09:00−15зюз399486 0.1 1012304
12:00−11зюз259285 0.1 1013350
15:00−8ююз248899 0.0 1014507
18:00−9ююв259299 0.0 1012275
21:00−10юв3895100 0.3 1010393
8 марта, пн
пн800:00−9в41095100 1.8 1005576
03:00−9в41095100 1.6 998573
06:00−9с4895100 5.2 995380
09:00−10сз61193100 2.4 995666
12:00−9зсз61190100 2.5 1000731
15:00−8з61088100 0.1 1004885
18:00−10з4887100 0.2 1008890
21:00−13юз3795100 0.1 1010214
9 марта, вт
вт900:00−14ююз399496 0.1 1011309
03:00−14ююз3109492 0.1 1011348
06:00−13ююз4119495 0.1 1010417
09:00−12ю51293100 0.1 1009443
12:00−9ююз51092100 0.1 1009545
15:00−7ю51092100 0.1 1007638
18:00−7ююз51294100 1.1 1005956
21:00−7юз51291100 0.4 1004703
10 марта, ср
ср1000:00−6юз51192100 0.5 1005599
03:00−10зюз3109593 0.0 1006242
06:00−14зюз239771 0.0 100820
09:00−14юз229786 0.0 100961
12:00−9юз129293 0.0 1008277
15:00−6ююз1288100 0.0 1007499
18:00−6юз0190100 0.1 1005206
21:00−11зсз1295100 0.0 100421